Tracking 19176 objects as of 25-May-2018
HD Live streaming from Space Station
objects crossing your sky now

USA 142

Track USA 142 now!
USA 142 is classified as:


NORAD ID: 25669
Int'l Code: 1999-017A
Perigee: 652.9 km
Apogee: 34,685.7 km
Inclination: 29.4 °
Period: 618.3 minutes
Semi major axis: 24040 km
RCS: Unknown
Launch date: April 9, 1999
Source: United States (US)
Launch site: AIR FORCE EASTERN TEST RANGE (AFETR)
aabbcc
Your satellite tracking list
Your tracking list is empty




NASA's NSSDC Master Catalog

Two Line Element Set (TLE):
1 25669U 99017A   18110.79159438 0.00000000  00000-0  00000-0 0    04
2 25669  29.3747  12.3397 7078276 291.5726  10.2391  2.32912974    01
Source of the keplerian elements: McCants